WXM80 ListenWXM80 Stop

You find our weather info also at:

UK Metoffice

WeatherCloud

Weather Underground

Northeastern Weather Network

AWEKAS

Citizen Weather Observer Program (CWOP)

HAMweather, WeatherForYou, PWS Weather


Weather Underground History page Text

Daily Summary for May 6, 2016 Units:  English    Metric   Both
« Previous Day
Next Day »
Daily Weekly Monthly Yearly Custom
  High: Low: Average:
Temperature: 55.5 °F 47.7 °F 50.3 °F
Dew Point: 52.4 °F 46.0 °F 48.3 °F
Humidity: 97 % 85 % 93 %
Wind Speed: 13.0 mph 0.0 mph 5.4 mph
Wind Gust: 17.3 mph - -
Wind:- - East
Pressure: 29.81 in 29.65 in -
Precipitation: 0.36 in    
Historical Graphs
 
 
Tabular Data for May 6, 2016
Time Temperature Dew Point Pressure Wind Wind Speed Wind Gust Humidity Rainfall Rate (Hourly)
00:01 50.4 °F 46.7 °F 29.66 in NNE 5.1 mph 9.2 mph 87 % 0.00 in
00:06 50.4 °F 46.7 °F 29.65 in ENE 5.5 mph 7.0 mph 87 % 0.00 in
00:12 50.5 °F 46.8 °F 29.65 in ENE 4.1 mph 8.1 mph 87 % 0.00 in
00:17 50.5 °F 46.8 °F 29.65 in ENE 3.4 mph 4.6 mph 87 % 0.00 in
00:22 50.5 °F 46.5 °F 29.65 in NE 3.5 mph 11.5 mph 86 % 0.00 in
00:27 50.5 °F 46.5 °F 29.65 in NE 3.4 mph 5.0 mph 86 % 0.00 in
00:32 50.5 °F 46.5 °F 29.66 in ENE 3.6 mph 8.1 mph 86 % 0.00 in
00:37 50.5 °F 46.5 °F 29.66 in ENE 3.9 mph 9.2 mph 86 % 0.00 in
00:47 50.5 °F 46.2 °F 29.66 in ENE 6.2 mph 10.4 mph 85 % 0.00 in
00:52 50.6 °F 46.3 °F 29.66 in NE 5.3 mph 10.4 mph 85 % 0.00 in
00:57 50.6 °F 46.3 °F 29.66 in ENE 6.7 mph 9.2 mph 85 % 0.00 in
01:03 50.6 °F 46.3 °F 29.66 in East 6.2 mph 9.2 mph 85 % 0.00 in
01:08 50.5 °F 46.2 °F 29.66 in ENE 8.6 mph 11.5 mph 85 % 0.00 in
01:13 50.5 °F 46.2 °F 29.65 in ENE 7.4 mph 10.4 mph 85 % 0.00 in
01:18 50.4 °F 46.4 °F 29.65 in East 8.0 mph 11.5 mph 86 % 0.00 in
01:23 50.4 °F 46.7 °F 29.65 in ENE 6.9 mph 11.5 mph 87 % 0.00 in
01:28 50.3 °F 46.6 °F 29.65 in East 9.0 mph 11.5 mph 87 % 0.00 in
01:38 50.0 °F 46.3 °F 29.65 in East 6.7 mph 13.0 mph 87 % 0.00 in
01:48 49.8 °F 46.4 °F 29.65 in NE 7.2 mph 9.2 mph 88 % 0.00 in
01:54 49.7 °F 46.3 °F 29.65 in ENE 4.7 mph 7.0 mph 88 % 0.00 in
01:59 49.6 °F 46.2 °F 29.65 in NE 3.8 mph 6.9 mph 88 % 0.00 in
02:04 49.6 °F 46.2 °F 29.65 in ENE 3.4 mph 6.9 mph 88 % 0.00 in
02:09 49.5 °F 46.1 °F 29.66 in ENE 3.1 mph 4.6 mph 88 % 0.00 in
02:14 49.5 °F 46.1 °F 29.66 in NE 3.6 mph 8.1 mph 88 % 0.00 in
02:19 49.5 °F 46.1 °F 29.66 in ENE 3.4 mph 6.9 mph 88 % 0.00 in
02:24 49.5 °F 46.1 °F 29.66 in ENE 1.7 mph 5.8 mph 88 % 0.00 in
02:34 49.5 °F 46.1 °F 29.66 in NE 0.7 mph 2.3 mph 88 % 0.00 in
02:39 49.5 °F 46.1 °F 29.67 in NE 1.9 mph 3.5 mph 88 % 0.00 in
02:45 49.5 °F 46.1 °F 29.67 in Calm   3.5 mph 88 % 0.00 in
02:50 49.4 °F 46.0 °F 29.67 in ENE 2.4 mph 5.0 mph 88 % 0.00 in
02:55 49.4 °F 46.0 °F 29.67 in NE 1.0 mph 2.3 mph 88 % 0.00 in
03:00 49.5 °F 46.1 °F 29.67 in ENE 4.1 mph 8.1 mph 88 % 0.00 in
03:05 49.5 °F 46.1 °F 29.67 in ENE 5.3 mph 8.1 mph 88 % 0.00 in
03:10 49.4 °F 46.6 °F 29.67 in ENE 3.0 mph 3.5 mph 90 % 0.01 in
03:15 49.2 °F 46.7 °F 29.68 in NE 1.2 mph 2.3 mph 91 % 0.03 in
03:25 49.0 °F 46.5 °F 29.67 in ENE 2.7 mph 5.0 mph 91 % 0.05 in
03:30 48.9 °F 46.7 °F 29.68 in ENE 2.1 mph 4.0 mph 92 % 0.06 in
03:36 48.8 °F 46.6 °F 29.67 in ENE 2.4 mph 3.5 mph 92 % 0.07 in
03:41 48.8 °F 46.6 °F 29.66 in NE 2.7 mph 4.6 mph 92 % 0.08 in
03:46 48.7 °F 46.8 °F 29.66 in NNE 3.1 mph 5.8 mph 93 % 0.09 in
03:51 48.6 °F 46.7 °F 29.66 in NE 2.7 mph 4.6 mph 93 % 0.10 in
03:56 48.4 °F 46.5 °F 29.66 in NE 2.9 mph 4.0 mph 93 % 0.11 in
04:01 48.3 °F 46.7 °F 29.65 in North 4.4 mph 10.4 mph 94 % 0.11 in
04:06 48.3 °F 46.7 °F 29.66 in North 6.6 mph 9.2 mph 94 % 0.12 in
04:11 48.2 °F 46.6 °F 29.65 in NE 4.4 mph 6.9 mph 94 % 0.10 in
04:16 48.1 °F 46.7 °F 29.66 in NNE 3.8 mph 6.9 mph 95 % 0.09 in
04:21 48.1 °F 46.7 °F 29.65 in NE 3.1 mph 4.0 mph 95 % 0.08 in
04:27 48.1 °F 46.7 °F 29.66 in ENE 4.1 mph 4.1 mph 95 % 0.07 in
04:32 48.1 °F 46.7 °F 29.65 in NE 3.1 mph 4.6 mph 95 % 0.05 in
04:37 48.1 °F 46.7 °F 29.66 in NE 2.9 mph 4.0 mph 95 % 0.04 in
04:42 48.0 °F 46.6 °F 29.66 in NE 2.9 mph 4.6 mph 95 % 0.04 in
04:47 48.1 °F 46.7 °F 29.66 in NE 1.4 mph 3.5 mph 95 % 0.03 in
04:52 48.1 °F 46.7 °F 29.66 in NE 3.1 mph 5.0 mph 95 % 0.02 in
05:02 48.0 °F 46.9 °F 29.66 in NNE 4.0 mph 9.2 mph 96 % 0.01 in
05:07 47.9 °F 46.8 °F 29.66 in ENE 6.7 mph 10.4 mph 96 % 0.00 in
05:12 47.9 °F 46.8 °F 29.66 in ENE 3.8 mph 9.2 mph 96 % 0.00 in
05:18 47.9 °F 46.8 °F 29.66 in ENE 5.3 mph 9.2 mph 96 % 0.00 in
05:23 48.0 °F 46.9 °F 29.66 in ENE 7.2 mph 10.4 mph 96 % 0.00 in
05:28 48.0 °F 46.9 °F 29.66 in ENE 6.8 mph 11.5 mph 96 % 0.01 in
05:38 48.0 °F 46.6 °F 29.66 in East 6.2 mph 9.2 mph 95 % 0.01 in
05:43 48.0 °F 46.6 °F 29.66 in ENE 7.4 mph 11.0 mph 95 % 0.01 in
05:48 47.9 °F 46.5 °F 29.67 in ENE 6.6 mph 12.7 mph 95 % 0.01 in
05:53 48.0 °F 46.6 °F 29.67 in NE 8.4 mph 11.5 mph 95 % 0.01 in
05:58 48.0 °F 46.9 °F 29.68 in East 4.7 mph 11.5 mph 96 % 0.02 in
06:04 48.0 °F 46.9 °F 29.68 in NE 6.9 mph 12.7 mph 96 % 0.03 in
06:09 47.9 °F 46.8 °F 29.68 in ENE 7.2 mph 11.5 mph 96 % 0.04 in
06:14 47.9 °F 46.8 °F 29.68 in ENE 7.5 mph 11.0 mph 96 % 0.05 in
06:19 47.8 °F 46.7 °F 29.68 in East 5.9 mph 12.7 mph 96 % 0.06 in
06:24 47.8 °F 46.7 °F 29.69 in ENE 5.8 mph 11.5 mph 96 % 0.06 in
06:29 47.8 °F 46.7 °F 29.68 in ENE 8.1 mph 10.4 mph 96 % 0.07 in
06:34 47.8 °F 46.7 °F 29.68 in ENE 8.5 mph 11.5 mph 96 % 0.08 in
06:39 47.8 °F 46.7 °F 29.68 in ENE 9.6 mph 13.0 mph 96 % 0.08 in
06:44 47.8 °F 46.7 °F 29.68 in East 9.4 mph 13.8 mph 96 % 0.09 in
06:55 47.7 °F 46.6 °F 29.68 in ENE 8.5 mph 13.8 mph 96 % 0.10 in
07:00 47.7 °F 46.9 °F 29.68 in ENE 5.1 mph 9.2 mph 97 % 0.10 in
07:05 47.8 °F 47.0 °F 29.68 in ENE 6.6 mph 13.0 mph 97 % 0.10 in
07:10 47.8 °F 47.0 °F 29.68 in ENE 7.1 mph 13.0 mph 97 % 0.10 in
07:15 47.7 °F 46.9 °F 29.68 in East 8.7 mph 12.7 mph 97 % 0.09 in
07:20 47.7 °F 46.9 °F 29.68 in ENE 7.6 mph 11.0 mph 97 % 0.08 in
07:25 47.7 °F 46.9 °F 29.69 in ENE 5.3 mph 11.5 mph 97 % 0.07 in
07:30 47.7 °F 46.9 °F 29.69 in ENE 6.8 mph 9.2 mph 97 % 0.06 in
07:35 47.7 °F 46.9 °F 29.69 in ENE 8.7 mph 11.5 mph 97 % 0.05 in
07:40 47.7 °F 46.9 °F 29.68 in ENE 9.4 mph 13.8 mph 97 % 0.04 in
07:46 47.7 °F 46.9 °F 29.68 in East 7.2 mph 11.5 mph 97 % 0.04 in
07:51 47.7 °F 46.9 °F 29.68 in ENE 10.1 mph 15.0 mph 97 % 0.03 in
07:56 47.7 °F 46.9 °F 29.68 in East 7.7 mph 12.7 mph 97 % 0.02 in
08:01 47.7 °F 46.9 °F 29.68 in ENE 8.8 mph 12.0 mph 97 % 0.02 in
08:06 47.7 °F 46.9 °F 29.68 in ENE 8.0 mph 12.7 mph 97 % 0.02 in
08:11 47.8 °F 47.0 °F 29.68 in East 6.5 mph 13.8 mph 97 % 0.02 in
08:16 47.8 °F 47.0 °F 29.68 in ENE 10.6 mph 15.0 mph 97 % 0.03 in
08:21 47.8 °F 47.0 °F 29.68 in ENE 9.4 mph 12.7 mph 97 % 0.04 in
08:26 47.8 °F 47.0 °F 29.68 in East 11.1 mph 13.8 mph 97 % 0.04 in
08:31 47.7 °F 46.9 °F 29.68 in ENE 7.9 mph 15.0 mph 97 % 0.04 in
08:37 47.8 °F 47.0 °F 29.69 in ENE 5.7 mph 15.0 mph 97 % 0.05 in
08:42 47.7 °F 46.9 °F 29.69 in East 8.8 mph 16.1 mph 97 % 0.05 in
08:47 47.7 °F 46.9 °F 29.69 in ENE 9.5 mph 16.1 mph 97 % 0.06 in
08:52 47.7 °F 46.9 °F 29.69 in East 6.2 mph 9.2 mph 97 % 0.06 in
08:57 47.8 °F 47.0 °F 29.68 in NE 10.0 mph 16.1 mph 97 % 0.06 in
09:02 47.8 °F 47.0 °F 29.68 in ENE 13.0 mph 17.3 mph 97 % 0.05 in
09:07 47.9 °F 47.1 °F 29.68 in NE 7.6 mph 16.1 mph 97 % 0.05 in
09:12 48.0 °F 47.2 °F 29.69 in ENE 7.0 mph 12.7 mph 97 % 0.05 in
09:22 48.0 °F 47.2 °F 29.69 in NE 10.9 mph 14.0 mph 97 % 0.03 in
09:28 47.9 °F 47.1 °F 29.69 in ENE 7.0 mph 10.0 mph 97 % 0.03 in
09:33 47.9 °F 47.1 °F 29.69 in NE 10.5 mph 12.7 mph 97 % 0.03 in
09:38 47.9 °F 47.1 °F 29.69 in East 9.1 mph 13.8 mph 97 % 0.02 in
09:43 47.8 °F 47.0 °F 29.69 in ENE 7.8 mph 10.4 mph 97 % 0.02 in
09:48 47.8 °F 47.0 °F 29.70 in East 7.4 mph 9.2 mph 97 % 0.02 in
09:53 47.8 °F 47.0 °F 29.70 in East 7.7 mph 10.4 mph 97 % 0.02 in
09:58 47.9 °F 47.1 °F 29.70 in ENE 7.4 mph 9.2 mph 97 % 0.02 in
10:03 48.0 °F 47.2 °F 29.70 in East 8.3 mph 11.5 mph 97 % 0.02 in
10:08 48.1 °F 47.3 °F 29.70 in East 9.1 mph 11.5 mph 97 % 0.01 in
10:13 48.2 °F 47.4 °F 29.70 in East 7.6 mph 9.0 mph 97 % 0.02 in
10:19 48.4 °F 47.6 °F 29.70 in East 8.3 mph 11.5 mph 97 % 0.02 in
10:24 48.4 °F 47.6 °F 29.70 in East 8.8 mph 10.4 mph 97 % 0.03 in
10:29 48.4 °F 47.6 °F 29.69 in East 8.5 mph 11.5 mph 97 % 0.03 in
10:34 48.5 °F 47.7 °F 29.70 in ENE 8.4 mph 11.5 mph 97 % 0.03 in
10:39 48.8 °F 48.0 °F 29.70 in East 8.9 mph 11.0 mph 97 % 0.03 in
10:44 49.0 °F 48.2 °F 29.70 in NE 9.4 mph 11.5 mph 97 % 0.03 in
10:49 48.9 °F 48.1 °F 29.72 in East 9.4 mph 11.5 mph 97 % 0.02 in
10:54 48.8 °F 48.0 °F 29.72 in ENE 7.2 mph 10.4 mph 97 % 0.02 in
10:59 48.7 °F 47.9 °F 29.73 in East 6.5 mph 11.5 mph 97 % 0.02 in
11:04 48.6 °F 47.5 °F 29.73 in East 5.6 mph 10.4 mph 96 % 0.02 in
11:10 48.7 °F 47.6 °F 29.73 in ESE 8.1 mph 11.0 mph 96 % 0.02 in
11:15 49.0 °F 48.2 °F 29.73 in East 9.7 mph 11.5 mph 97 % 0.01 in
11:20 49.6 °F 48.8 °F 29.72 in East 9.3 mph 12.7 mph 97 % 0.01 in
11:25 49.9 °F 48.8 °F 29.72 in East 8.3 mph 11.5 mph 96 % 0.00 in
11:30 50.0 °F 48.9 °F 29.72 in East 8.8 mph 11.5 mph 96 % 0.00 in
11:35 50.3 °F 49.2 °F 29.72 in East 7.5 mph 9.0 mph 96 % 0.00 in
11:40 50.6 °F 49.5 °F 29.72 in East 8.4 mph 10.4 mph 96 % 0.00 in
11:45 50.7 °F 49.3 °F 29.72 in East 8.0 mph 10.4 mph 95 % 0.00 in
11:50 50.9 °F 49.5 °F 29.72 in ENE 8.4 mph 10.0 mph 95 % 0.00 in
11:55 51.0 °F 49.3 °F 29.72 in NE 9.2 mph 11.5 mph 94 % 0.00 in
12:01 51.3 °F 49.6 °F 29.72 in East 9.5 mph 12.7 mph 94 % 0.00 in
12:06 51.5 °F 49.8 °F 29.72 in East 9.0 mph 12.7 mph 94 % 0.00 in
12:11 51.7 °F 49.7 °F 29.72 in ESE 8.8 mph 10.4 mph 93 % 0.00 in
12:16 51.7 °F 49.5 °F 29.72 in East 8.4 mph 10.4 mph 92 % 0.00 in
12:21 51.7 °F 49.5 °F 29.72 in East 8.2 mph 11.5 mph 92 % 0.00 in
12:26 51.7 °F 49.5 °F 29.73 in East 7.6 mph 9.2 mph 92 % 0.00 in
12:31 51.8 °F 49.5 °F 29.73 in East 6.8 mph 9.0 mph 92 % 0.00 in
12:36 51.9 °F 49.6 °F 29.73 in East 5.2 mph 8.1 mph 92 % 0.00 in
12:41 52.0 °F 49.7 °F 29.73 in East 6.0 mph 7.0 mph 92 % 0.00 in
12:46 52.2 °F 49.9 °F 29.73 in East 3.3 mph 5.0 mph 92 % 0.00 in
12:52 52.4 °F 50.1 °F 29.73 in East 5.5 mph 6.0 mph 92 % 0.00 in
12:57 52.5 °F 50.5 °F 29.73 in East 5.4 mph 7.0 mph 93 % 0.00 in
13:07 52.9 °F 50.6 °F 29.72 in East 6.6 mph 8.1 mph 92 % 0.00 in
13:12 53.1 °F 50.5 °F 29.72 in ESE 5.1 mph 6.9 mph 91 % 0.00 in
13:17 53.4 °F 50.8 °F 29.72 in East 5.4 mph 6.9 mph 91 % 0.00 in
13:22 53.7 °F 51.1 °F 29.73 in East 5.7 mph 7.0 mph 91 % 0.00 in
13:27 53.7 °F 50.8 °F 29.73 in ESE 5.8 mph 8.1 mph 90 % 0.00 in
13:32 53.7 °F 50.8 °F 29.73 in East 5.4 mph 8.1 mph 90 % 0.00 in
13:37 53.8 °F 50.9 °F 29.73 in East 4.7 mph 9.2 mph 90 % 0.00 in
13:43 54.0 °F 51.1 °F 29.73 in East 5.1 mph 7.0 mph 90 % 0.00 in
13:48 54.3 °F 51.4 °F 29.73 in ESE 5.8 mph 8.1 mph 90 % 0.00 in
13:53 54.4 °F 51.5 °F 29.73 in East 5.1 mph 8.1 mph 90 % 0.00 in
13:58 54.5 °F 51.3 °F 29.73 in East 3.0 mph 3.5 mph 89 % 0.00 in
14:03 54.7 °F 51.8 °F 29.73 in SE 5.2 mph 8.0 mph 90 % 0.00 in
14:08 54.9 °F 52.0 °F 29.73 in ESE 4.8 mph 8.0 mph 90 % 0.00 in
14:13 55.0 °F 52.1 °F 29.73 in East 3.5 mph 5.8 mph 90 % 0.00 in
14:18 55.3 °F 52.4 °F 29.73 in East 4.2 mph 8.0 mph 90 % 0.00 in
14:23 55.4 °F 52.2 °F 29.73 in East 8.1 mph 11.0 mph 89 % 0.00 in
14:28 55.5 °F 52.3 °F 29.73 in East 6.2 mph 8.1 mph 89 % 0.00 in
14:34 55.5 °F 52.0 °F 29.73 in East 7.3 mph 12.7 mph 88 % 0.00 in
14:39 55.4 °F 51.6 °F 29.73 in ESE 6.8 mph 11.5 mph 87 % 0.00 in
14:44 55.3 °F 51.5 °F 29.73 in East 9.0 mph 11.5 mph 87 % 0.00 in
14:49 55.3 °F 51.8 °F 29.73 in East 7.3 mph 9.2 mph 88 % 0.00 in
14:54 55.3 °F 51.8 °F 29.73 in East 6.2 mph 6.9 mph 88 % 0.00 in
14:59 55.3 °F 51.8 °F 29.74 in East 7.6 mph 11.5 mph 88 % 0.00 in
15:04 55.2 °F 51.7 °F 29.74 in East 9.9 mph 14.0 mph 88 % 0.00 in
15:09 54.9 °F 51.1 °F 29.75 in East 7.5 mph 13.0 mph 87 % 0.00 in
15:14 54.8 °F 51.3 °F 29.75 in ESE 8.0 mph 11.5 mph 88 % 0.00 in
15:19 54.7 °F 51.2 °F 29.75 in East 8.2 mph 10.0 mph 88 % 0.00 in
15:25 54.8 °F 51.6 °F 29.75 in East 5.4 mph 7.0 mph 89 % 0.00 in
15:30 54.9 °F 51.7 °F 29.75 in East 6.0 mph 9.0 mph 89 % 0.00 in
15:35 54.9 °F 51.4 °F 29.75 in ENE 5.3 mph 8.1 mph 88 % 0.00 in
15:40 54.8 °F 51.3 °F 29.75 in ESE 4.8 mph 6.9 mph 88 % 0.00 in
15:45 54.8 °F 51.6 °F 29.75 in East 3.9 mph 7.0 mph 89 % 0.00 in
15:50 54.7 °F 51.5 °F 29.74 in East 5.6 mph 9.2 mph 89 % 0.00 in
15:55 54.6 °F 51.4 °F 29.74 in East 5.1 mph 6.0 mph 89 % 0.00 in
16:00 54.6 °F 51.4 °F 29.74 in East 4.0 mph 6.9 mph 89 % 0.00 in
16:05 54.4 °F 51.2 °F 29.74 in East 4.1 mph 5.0 mph 89 % 0.00 in
16:10 54.3 °F 51.1 °F 29.75 in East 3.1 mph 5.8 mph 89 % 0.00 in
16:16 54.2 °F 51.0 °F 29.75 in East 4.0 mph 8.1 mph 89 % 0.00 in
16:21 53.9 °F 50.7 °F 29.75 in East 5.7 mph 8.1 mph 89 % 0.00 in
16:26 53.9 °F 51.0 °F 29.74 in ENE 4.7 mph 6.9 mph 90 % 0.00 in
16:31 53.8 °F 50.6 °F 29.74 in ENE 5.3 mph 8.1 mph 89 % 0.00 in
16:36 53.6 °F 50.7 °F 29.75 in ENE 4.9 mph 7.0 mph 90 % 0.00 in
16:41 53.3 °F 50.1 °F 29.75 in ENE 5.6 mph 10.4 mph 89 % 0.00 in
16:46 53.0 °F 50.1 °F 29.75 in East 3.6 mph 8.1 mph 90 % 0.00 in
16:51 52.7 °F 49.8 °F 29.75 in East 6.1 mph 10.4 mph 90 % 0.00 in
16:56 52.4 °F 49.6 °F 29.75 in ENE 3.2 mph 6.9 mph 90 % 0.00 in
17:01 52.2 °F 49.7 °F 29.76 in ENE 3.3 mph 5.8 mph 91 % 0.00 in
17:07 52.1 °F 49.8 °F 29.76 in East 2.4 mph 4.6 mph 92 % 0.00 in
17:12 52.1 °F 49.8 °F 29.76 in East 4.0 mph 6.9 mph 92 % 0.00 in
17:17 52.1 °F 49.8 °F 29.77 in East 4.2 mph 5.8 mph 92 % 0.00 in
17:22 52.2 °F 49.9 °F 29.77 in East 6.3 mph 10.4 mph 92 % 0.00 in
17:27 52.3 °F 50.0 °F 29.77 in East 3.1 mph 6.9 mph 92 % 0.00 in
17:32 52.3 °F 50.0 °F 29.77 in East 2.8 mph 4.6 mph 92 % 0.00 in
17:37 52.3 °F 49.8 °F 29.77 in East 5.1 mph 8.1 mph 91 % 0.00 in
17:42 52.2 °F 49.7 °F 29.77 in East 3.8 mph 6.9 mph 91 % 0.00 in
17:47 52.2 °F 49.7 °F 29.77 in East 3.6 mph 5.0 mph 91 % 0.00 in
17:52 52.1 °F 49.6 °F 29.77 in East 3.3 mph 6.0 mph 91 % 0.00 in
17:58 52.0 °F 49.5 °F 29.77 in East 4.4 mph 5.8 mph 91 % 0.00 in
18:03 51.9 °F 49.6 °F 29.77 in East 3.3 mph 5.8 mph 92 % 0.00 in
18:08 51.9 °F 49.6 °F 29.77 in East 4.6 mph 8.0 mph 92 % 0.00 in
18:13 51.8 °F 49.5 °F 29.77 in East 5.7 mph 7.0 mph 92 % 0.00 in
18:23 51.6 °F 49.6 °F 29.77 in East 4.8 mph 5.8 mph 93 % 0.00 in
18:28 51.5 °F 49.5 °F 29.77 in East 4.5 mph 8.1 mph 93 % 0.00 in
18:33 51.5 °F 49.5 °F 29.76 in East 3.9 mph 6.0 mph 93 % 0.00 in
18:38 51.3 °F 49.3 °F 29.77 in East 2.0 mph 5.8 mph 93 % 0.00 in
18:43 51.3 °F 49.3 °F 29.77 in East 2.7 mph 5.0 mph 93 % 0.00 in
18:49 51.2 °F 49.2 °F 29.78 in East 2.2 mph 4.6 mph 93 % 0.00 in
18:54 51.1 °F 49.1 °F 29.77 in East 3.7 mph 7.0 mph 93 % 0.00 in
18:59 51.0 °F 49.3 °F 29.78 in East 5.0 mph 6.9 mph 94 % 0.00 in
19:04 50.8 °F 49.1 °F 29.78 in East 1.8 mph 3.5 mph 94 % 0.00 in
19:09 50.8 °F 49.1 °F 29.78 in ENE 3.3 mph 4.6 mph 94 % 0.00 in
19:14 50.7 °F 49.0 °F 29.79 in East 4.9 mph 8.1 mph 94 % 0.00 in
19:19 50.5 °F 48.6 °F 29.79 in East 5.7 mph 11.5 mph 93 % 0.00 in
19:29 50.4 °F 48.5 °F 29.77 in East 5.4 mph 7.0 mph 93 % 0.00 in
19:35 50.4 °F 48.7 °F 29.77 in ENE 5.7 mph 10.4 mph 94 % 0.00 in
19:40 50.3 °F 48.6 °F 29.79 in East 2.0 mph 3.5 mph 94 % 0.00 in
19:45 50.2 °F 48.5 °F 29.80 in East 2.7 mph 6.0 mph 94 % 0.00 in
19:55 50.1 °F 48.4 °F 29.80 in East 2.6 mph 5.0 mph 94 % 0.00 in
20:00 50.0 °F 48.3 °F 29.80 in East 2.9 mph 4.6 mph 94 % 0.00 in
20:05 50.0 °F 48.3 °F 29.80 in East 2.0 mph 3.5 mph 94 % 0.00 in
20:10 50.0 °F 48.3 °F 29.80 in East 2.7 mph 4.6 mph 94 % 0.00 in
20:15 49.9 °F 48.2 °F 29.79 in East 4.8 mph 6.9 mph 94 % 0.00 in
20:20 49.9 °F 48.2 °F 29.79 in East 4.5 mph 6.0 mph 94 % 0.00 in
20:26 49.8 °F 48.1 °F 29.79 in East 4.5 mph 5.8 mph 94 % 0.00 in
20:31 49.7 °F 48.0 °F 29.79 in East 3.3 mph 6.9 mph 94 % 0.00 in
20:36 49.6 °F 47.9 °F 29.79 in East 3.4 mph 6.9 mph 94 % 0.00 in
20:41 49.5 °F 47.8 °F 29.80 in ESE 2.2 mph 3.5 mph 94 % 0.00 in
20:46 49.5 °F 47.8 °F 29.80 in East 3.6 mph 5.8 mph 94 % 0.00 in
20:51 49.4 °F 47.7 °F 29.80 in ESE 4.8 mph 6.9 mph 94 % 0.00 in
20:56 49.5 °F 47.8 °F 29.80 in East 1.8 mph 3.0 mph 94 % 0.00 in
21:01 49.4 °F 47.7 °F 29.81 in ESE 2.0 mph 3.5 mph 94 % 0.00 in
21:11 49.4 °F 47.7 °F 29.81 in East 2.4 mph 4.6 mph 94 % 0.00 in
21:17 49.4 °F 47.7 °F 29.81 in East 4.6 mph 6.0 mph 94 % 0.00 in
21:22 49.4 °F 47.7 °F 29.81 in East 2.8 mph 4.6 mph 94 % 0.00 in
21:27 49.4 °F 48.0 °F 29.81 in East 2.4 mph 5.8 mph 95 % 0.00 in
21:32 49.4 °F 48.0 °F 29.81 in East 4.9 mph 5.8 mph 95 % 0.00 in
21:37 49.4 °F 48.0 °F 29.81 in East 5.2 mph 8.1 mph 95 % 0.00 in
21:42 49.4 °F 48.0 °F 29.81 in East 5.5 mph 8.1 mph 95 % 0.00 in
21:47 49.4 °F 48.0 °F 29.81 in SSE 2.3 mph 4.6 mph 95 % 0.00 in
21:52 49.4 °F 48.0 °F 29.81 in East 3.5 mph 5.0 mph 95 % 0.00 in
21:57 49.4 °F 48.0 °F 29.81 in East 2.6 mph 4.6 mph 95 % 0.00 in
22:02 49.4 °F 48.0 °F 29.81 in East 3.1 mph 3.5 mph 95 % 0.00 in
22:07 49.4 °F 48.0 °F 29.81 in East 2.6 mph 3.5 mph 95 % 0.00 in
22:12 49.4 °F 48.0 °F 29.81 in East 2.2 mph 4.6 mph 95 % 0.00 in
22:18 49.4 °F 48.0 °F 29.81 in ENE 2.1 mph 3.5 mph 95 % 0.00 in
22:23 49.4 °F 48.0 °F 29.81 in ENE 1.6 mph 3.5 mph 95 % 0.00 in
22:28 49.4 °F 48.0 °F 29.81 in East 3.2 mph 4.6 mph 95 % 0.00 in
22:33 49.4 °F 48.0 °F 29.81 in NE 2.1 mph 3.5 mph 95 % 0.00 in
22:38 49.4 °F 48.0 °F 29.81 in ENE 2.1 mph 3.5 mph 95 % 0.00 in
22:43 49.3 °F 47.9 °F 29.81 in East 3.5 mph 4.6 mph 95 % 0.00 in
22:48 49.3 °F 47.9 °F 29.81 in East 3.3 mph 5.8 mph 95 % 0.00 in
22:53 49.3 °F 47.9 °F 29.81 in East 2.7 mph 4.6 mph 95 % 0.00 in
22:58 49.3 °F 47.9 °F 29.81 in East 3.7 mph 4.6 mph 95 % 0.00 in
23:03 49.3 °F 48.2 °F 29.81 in East 2.0 mph 4.6 mph 96 % 0.00 in
23:09 49.3 °F 48.2 °F 29.81 in East 2.1 mph 4.6 mph 96 % 0.00 in
23:14 49.3 °F 48.2 °F 29.81 in East 3.6 mph 5.0 mph 96 % 0.00 in
23:19 49.3 °F 48.2 °F 29.81 in East 1.8 mph 3.5 mph 96 % 0.00 in
23:24 49.2 °F 48.1 °F 29.81 in East 2.4 mph 3.5 mph 96 % 0.00 in
23:29 49.2 °F 48.1 °F 29.81 in East 1.6 mph 2.3 mph 96 % 0.00 in
23:34 49.2 °F 48.1 °F 29.81 in East 1.5 mph 3.5 mph 96 % 0.00 in
23:39 49.2 °F 48.1 °F 29.81 in ENE 2.1 mph 3.5 mph 96 % 0.00 in
23:44 49.2 °F 48.1 °F 29.80 in East 1.9 mph 4.6 mph 96 % 0.00 in
23:49 49.1 °F 48.0 °F 29.81 in East 4.1 mph 5.0 mph 96 % 0.00 in
23:54 49.1 °F 48.0 °F 29.81 in East 2.2 mph 3.5 mph 96 % 0.00 in
Crab Meadow Weather
Compliments of Weather Underground - 2.75 mb

Script developed by  Jim McMurry - jmcmurry@mwt.net Adapted for the template by  Wim van der Kuil - Leuven-Template.eu

Astronomy: Venus rotates east to west.